N5KR Weather Reports


Display with metric or nautical units.
time (UTC)temp
F
wind
direction
speed
MPH
gust
MPH
rain 1hr
in
rain 24hr
in
rain mn
in
humidity
%
barometer
mb
20260905002006 93 147 4.0 9.0 0.00 0.00 0.00 47 1011.9
20260905001505 93 122 6.0 13.0 0.00 0.00 0.00 47 1011.9
20260905000005 94 164 6.0 12.0 0.00 0.00 0.00 47 1012.0
20260904235506 94 133 7.0 15.0 0.00 0.00 0.00 47 1011.9
20260904235006 94 124 5.0 12.0 0.00 0.00 0.00 47 1012.0
20260904234505 94 139 2.0 12.0 0.00 0.00 0.00 47 1012.0
20260904234006 94 134 3.0 14.0 0.00 0.00 0.00 47 1011.8
20260904233505 94 156 7.0 14.0 0.00 0.00 0.00 47 1011.8
20260904233005 94 117 6.0 12.0 0.00 0.00 0.00 47 1011.8
20260904232505 94 164 5.0 10.0 0.00 0.00 0.00 48 1011.8
20260904232005 94 130 5.0 13.0 0.00 0.00 0.00 47 1011.9
20260904231505 94 169 9.0 14.0 0.00 0.00 0.00 48 1011.8
20260904231005 94 173 6.0 13.0 0.00 0.00 0.00 48 1011.9
20260904230005 95 141 5.0 13.0 0.00 0.00 0.00 47 1011.8
20260904225505 95 137 6.0 13.0 0.00 0.00 0.00 46 1011.8
20260904225005 96 148 6.0 13.0 0.00 0.00 0.00 46 1011.9
20260904223505 95 125 7.0 13.0 0.00 0.00 0.00 46 1012.0
20260904223005 96 175 9.0 13.0 0.00 0.00 0.00 45 1011.8
20260904222505 96 159 3.0 9.0 0.00 0.00 0.00 44 1011.8
20260904222005 96 171 4.0 13.0 0.00 0.00 0.00 44 1011.9
20260904221505 96 158 6.0 13.0 0.00 0.00 0.00 44 1011.8
20260904221005 96 165 3.0 6.0 0.00 0.00 0.00 45 1011.9
20260904220505 97 192 7.0 13.0 0.00 0.00 0.00 44 1012.0
20260904220005 97 169 6.0 10.0 0.00 0.00 0.00 43 1011.9
20260904215505 97 170 5.0 13.0 0.00 0.00 0.00 43 1012.1
20260904215005 96 169 5.0 12.0 0.00 0.00 0.00 44 1012.1
20260904214505 96 145 5.0 10.0 0.00 0.00 0.00 45 1012.2
20260904214006 95 179 7.0 10.0 0.00 0.00 0.00 46 1012.1
20260904213505 95 165 9.0 13.0 0.00 0.00 0.00 45 1012.2
20260904212505 96 159 4.0 13.0 0.00 0.00 0.00 45 1012.2
20260904212005 96 155 8.0 13.0 0.00 0.00 0.00 44 1012.4
20260904211505 97 138 5.0 13.0 0.00 0.00 0.00 43 1012.3
20260904211005 98 173 9.0 13.0 0.00 0.00 0.00 42 1012.5
20260904210005 97 151 7.0 13.0 0.00 0.00 0.00 44 1012.5
20260904205505 98 164 10.0 16.0 0.00 0.00 0.00 44 1012.5
20260904205005 97 177 5.0 12.0 0.00 0.00 0.00 44 1012.6
20260904204005 98 162 7.0 13.0 0.00 0.00 0.00 43 1012.7
20260904203505 100 165 6.0 10.0 0.00 0.00 0.00 41 1012.7
20260904201505 100 182 7.0 13.0 0.00 0.00 0.00 42 1013.1
20260904201005 99 177 5.0 13.0 0.00 0.00 0.00 43 1013.2
20260904200505 99 161 9.0 14.0 0.00 0.00 0.00 43 1013.2
20260904195504 99 86 2.0 9.0 0.00 0.00 0.00 42 1013.5
20260904195005 98 174 9.0 15.0 0.00 0.00 0.00 43 1013.6
20260904194504 98 205 7.0 13.0 0.00 0.00 0.00 42 1013.5
20260904194005 98 189 6.0 13.0 0.00 0.00 0.00 43 1013.6
20260904193505 97 181 2.0 7.0 0.00 0.00 0.00 43 1013.9
20260904193005 97 171 10.0 14.0 0.00 0.00 0.00 43 1013.8
20260904192505 98 174 5.0 13.0 0.00 0.00 0.00 42 1013.9
20260904192005 97 193 7.0 14.0 0.00 0.00 0.00 43 1013.9
20260904191505 98 214 4.0 10.0 0.00 0.00 0.00 44 1013.9
20260904191005 97 163 6.0 16.0 0.00 0.00 0.00 44 1014.0
20260904190505 97 195 6.0 14.0 0.00 0.00 0.00 46 1014.2
20260904190005 97 156 6.0 13.0 0.00 0.00 0.00 46 1014.2
20260904185505 97 197 5.0 9.0 0.00 0.00 0.00 46 1014.4
20260904184505 95 151 4.0 8.0 0.00 0.00 0.00 48 1014.5
20260904184005 95 185 10.0 16.0 0.00 0.00 0.00 48 1014.4
20260904183504 94 117 9.0 16.0 0.00 0.00 0.00 49 1014.6
20260904183005 95 176 6.0 13.0 0.00 0.00 0.00 49 1014.8
20260904182005 94 184 8.0 13.0 0.00 0.00 0.00 49 1014.8
20260904181505 95 186 7.0 14.0 0.00 0.00 0.00 49 1015.0
20260904180505 94 166 6.0 13.0 0.00 0.00 0.00 50 1015.0
20260904180005 94 143 9.0 16.0 0.00 0.00 0.00 49 1015.1
20260904175005 93 193 5.0 10.0 0.00 0.00 0.00 52 1015.3
20260904174504 94 184 4.0 9.0 0.00 0.00 0.00 52 1015.2
20260904174005 93 218 5.0 13.0 0.00 0.00 0.00 53 1015.4
20260904173505 93 197 5.0 8.0 0.00 0.00 0.00 54 1015.4
20260904173005 93 140 5.0 10.0 0.00 0.00 0.00 55 1015.6
20260904172505 93 137 10.0 15.0 0.00 0.00 0.00 55 1015.6
20260904172005 92 155 6.0 13.0 0.00 0.00 0.00 54 1015.6
20260904171505 93 163 5.0 12.0 0.00 0.00 0.00 52 1015.6
20260904171004 92 182 3.0 8.0 0.00 0.00 0.00 56 1015.7
20260904170504 93 167 6.0 12.0 0.00 0.00 0.00 55 1015.7
20260904170004 93 224 3.0 7.0 0.00 0.00 0.00 55 1015.8
20260904165005 92 183 6.0 12.0 0.00 0.00 0.00 57 1015.9
20260904164505 92 160 7.0 13.0 0.00 0.00 0.00 56 1015.8
20260904164005 92 160 7.0 13.0 0.00 0.00 0.00 56 1015.8
20260904163505 91 161 5.0 13.0 0.00 0.00 0.00 57 1015.9
20260904163005 91 200 3.0 9.0 0.00 0.00 0.00 59 1015.9
20260904162504 90 251 6.0 13.0 0.00 0.00 0.00 59 1015.9
20260904162004 90 181 5.0 13.0 0.00 0.00 0.00 61 1015.8
20260904161505 90 203 6.0 13.0 0.00 0.00 0.00 61 1015.8
20260904161004 90 190 4.0 9.0 0.00 0.00 0.00 61 1015.9
20260904160004 88 195 5.0 13.0 0.00 0.00 0.00 64 1015.7
20260904155504 89 199 5.0 10.0 0.00 0.00 0.00 64 1015.7
20260904155005 89 209 4.0 12.0 0.00 0.00 0.00 65 1015.7
20260904154504 88 194 9.0 12.0 0.00 0.00 0.00 66 1015.6
20260904154004 88 249 2.0 6.0 0.00 0.00 0.00 67 1015.6
20260904153504 88 169 6.0 13.0 0.00 0.00 0.00 66 1015.6
20260904153004 88 192 4.0 12.0 0.00 0.00 0.00 68 1015.7
20260904152505 87 179 7.0 13.0 0.00 0.00 0.00 69 1015.7
20260904151504 86 207 6.0 14.0 0.00 0.00 0.00 72 1015.6
20260904151004 86 195 6.0 12.0 0.00 0.00 0.00 72 1015.6
20260904150504 86 170 7.0 13.0 0.00 0.00 0.00 73 1015.6
20260904150004 86 191 5.0 12.0 0.00 0.00 0.00 74 1015.6
20260904145504 85 185 5.0 9.0 0.00 0.00 0.00 74 1015.5
20260904144505 84 194 6.0 10.0 0.00 0.00 0.00 77 1015.6
20260904144004 84 180 4.0 12.0 0.00 0.00 0.00 78 1015.4
20260904143504 82 201 7.0 13.0 0.00 0.00 0.00 80 1015.5
20260904143004 82 159 6.0 13.0 0.00 0.00 0.00 81 1015.5
20260904142504 83 167 6.0 13.0 0.00 0.00 0.00 80 1015.4
20260904142005 83 167 7.0 13.0 0.00 0.00 0.00 79 1015.4
20260904141504 83 195 5.0 12.0 0.00 0.00 0.00 81 1015.4
20260904141004 82 181 5.0 13.0 0.00 0.00 0.00 82 1015.4
20260904140504 82 159 9.0 14.0 0.00 0.00 0.00 82 1015.5
20260904140004 81 162 5.0 13.0 0.00 0.00 0.00 83 1015.4
20260904135504 81 151 6.0 12.0 0.00 0.00 0.00 84 1015.4
20260904135004 80 156 4.0 12.0 0.00 0.00 0.00 85 1015.2
20260904134504 80 173 5.0 8.0 0.00 0.00 0.00 86 1015.2
20260904134004 79 151 4.0 8.0 0.00 0.00 0.00 86 1015.1
20260904133505 79 166 5.0 9.0 0.00 0.00 0.00 86 1014.9
20260904133005 79 167 2.0 8.0 0.00 0.00 0.00 87 1014.9
20260904132504 78 167 7.0 12.0 0.00 0.00 0.00 88 1014.9
20260904132004 78 164 7.0 12.0 0.00 0.00 0.00 88 1014.9
20260904131504 78 168 2.0 9.0 0.00 0.00 0.00 89 1014.9
20260904131004 77 169 5.0 10.0 0.00 0.00 0.00 89 1014.8
20260904125505 77 166 5.0 13.0 0.00 0.00 0.00 89 1014.7
20260904125005 76 159 5.0 13.0 0.00 0.00 0.00 89 1014.6
20260904124004 76 150 3.0 7.0 0.00 0.00 0.00 89 1014.7
20260904123504 76 138 3.0 9.0 0.00 0.00 0.00 89 1014.5
20260904123004 76 122 2.0 6.0 0.00 0.00 0.00 89 1014.5
20260904122503 76 171 2.0 9.0 0.00 0.00 0.00 89 1014.5
20260904122004 76 137 2.0 9.0 0.00 0.00 0.00 88 1014.5
20260904121504 76 160 5.0 9.0 0.00 0.00 0.00 88 1014.4
20260904115503 76 145 2.0 5.0 0.00 0.00 0.00 87 1014.3
20260904115004 76 141 1.0 5.0 0.00 0.00 0.00 87 1014.4
20260904114504 76 141 3.0 7.0 0.00 0.00 0.00 87 1014.4
20260904113503 76 174 3.0 7.0 0.00 0.00 0.00 86 1014.2
20260904113004 76 150 1.0 6.0 0.00 0.00 0.00 87 1014.2
20260904112504 76 158 2.0 8.0 0.00 0.00 0.00 86 1014.2
20260904112004 76 138 3.0 7.0 0.00 0.00 0.00 86 1014.1
20260904111503 76 154 1.0 5.0 0.00 0.00 0.00 86 1014.1
20260904111004 77 150 2.0 6.0 0.00 0.00 0.00 86 1014.2
20260904110504 77 128 1.0 3.0 0.00 0.00 0.00 86 1014.2
20260904110004 77 138 0.0 6.0 0.00 0.00 0.00 86 1014.2
20260904105504 77 178 1.0 3.0 0.00 0.00 0.00 86 1014.1
20260904105005 77 142 1.0 5.0 0.00 0.00 0.00 86 1014.0
20260904104504 77 160 2.0 6.0 0.00 0.00 0.00 86 1014.0
20260904104004 77 157 1.0 6.0 0.00 0.00 0.00 86 1013.8
20260904103504 77 163 3.0 7.0 0.00 0.00 0.00 85 1013.8
20260904103004 77 157 3.0 8.0 0.00 0.00 0.00 85 1013.9
20260904102504 77 156 3.0 6.0 0.00 0.00 0.00 85 1013.9
20260904102004 77 159 3.0 7.0 0.00 0.00 0.00 85 1013.9
20260904101504 77 158 2.0 6.0 0.00 0.00 0.00 85 1013.8
20260904101003 77 167 6.0 10.0 0.00 0.00 0.00 85 1013.8
20260904100504 78 163 3.0 7.0 0.00 0.00 0.00 84 1013.8
20260904100004 78 160 5.0 10.0 0.00 0.00 0.00 84 1013.8
20260904095504 78 162 2.0 8.0 0.00 0.00 0.00 84 1013.8
20260904095004 78 173 5.0 8.0 0.00 0.00 0.00 84 1013.8
20260904094004 78 183 4.0 8.0 0.00 0.00 0.00 83 1013.7
20260904093504 78 161 6.0 8.0 0.00 0.00 0.00 83 1013.7
20260904092507 78 161 5.0 8.0 0.00 0.00 0.00 82 1013.9
20260904092007 78 182 1.0 7.0 0.00 0.00 0.00 82 1013.8
20260904091507 78 155 4.0 10.0 0.00 0.00 0.00 82 1013.8
20260904090507 78 167 5.0 9.0 0.00 0.00 0.00 82 1013.9
20260904090006 78 172 7.0 10.0 0.00 0.00 0.00 82 1013.9
20260904085507 78 172 3.0 7.0 0.00 0.00 0.00 81 1013.8
20260904084506 78 177 6.0 10.0 0.00 0.00 0.00 81 1013.8
20260904084007 78 159 1.0 6.0 0.00 0.00 0.00 81 1013.8
20260904083507 79 192 3.0 6.0 0.00 0.00 0.00 81 1013.7
20260904083006 79 157 3.0 8.0 0.00 0.00 0.00 81 1013.7
20260904082507 79 169 2.0 8.0 0.00 0.00 0.00 80 1013.7
20260904081007 79 166 6.0 12.0 0.00 0.00 0.00 80 1013.7
20260904080506 79 174 5.0 9.0 0.00 0.00 0.00 79 1013.7
20260904080006 79 169 4.0 9.0 0.00 0.00 0.00 79 1013.7
20260904075006 79 169 5.0 10.0 0.00 0.00 0.00 79 1013.7
20260904074506 79 185 4.0 9.0 0.00 0.00 0.00 79 1013.7
20260904073506 79 168 4.0 9.0 0.00 0.00 0.00 78 1013.7
20260904073007 79 173 2.0 8.0 0.00 0.00 0.00 78 1013.7
20260904072506 79 182 1.0 7.0 0.00 0.00 0.00 78 1013.8
20260904071506 79 165 3.0 9.0 0.00 0.00 0.00 77 1013.8
20260904071007 80 196 4.0 9.0 0.00 0.00 0.00 77 1013.7
20260904070506 80 168 5.0 12.0 0.00 0.00 0.00 77 1013.7
20260904065007 80 159 6.0 9.0 0.00 0.00 0.00 75 1013.9
20260904064506 80 171 6.0 13.0 0.00 0.00 0.00 75 1013.9
20260904064006 80 198 4.0 10.0 0.00 0.00 0.00 75 1013.8
20260904063507 80 185 6.0 13.0 0.00 0.00 0.00 75 1013.9
20260904062507 80 172 7.0 13.0 0.00 0.00 0.00 74 1013.9
20260904062006 80 173 6.0 8.0 0.00 0.00 0.00 74 1013.9
20260904061006 80 183 4.0 9.0 0.00 0.00 0.00 74 1014.0
20260904060506 80 186 3.0 8.0 0.00 0.00 0.00 74 1013.9
20260904060007 80 180 5.0 10.0 0.00 0.00 0.00 73 1013.9
20260904055507 80 176 3.0 12.0 0.00 0.00 0.00 73 1013.9
20260904055006 80 176 7.0 18.0 0.00 0.00 0.00 73 1013.9
20260904054506 80 173 10.0 15.0 0.00 0.00 0.00 73 1014.0
20260904054006 80 188 5.0 9.0 0.00 0.00 0.00 73 1014.1
20260904053506 80 157 3.0 8.0 0.00 0.00 0.00 72 1014.0
20260904053006 80 178 4.0 10.0 0.00 0.00 0.00 72 1014.0
20260904052007 81 165 8.0 13.0 0.00 0.00 0.00 72 1013.8
20260904051507 81 181 7.0 13.0 0.00 0.00 0.00 71 1013.8
20260904051006 81 163 8.0 17.0 0.00 0.00 0.00 71 1013.7
20260904044507 81 159 6.0 13.0 0.00 0.00 0.00 70 1013.8
20260904044006 81 175 6.0 13.0 0.00 0.00 0.00 70 1013.8
20260904043006 81 175 5.0 13.0 0.00 0.00 0.00 69 1013.8
20260904042506 81 165 7.0 13.0 0.00 0.00 0.00 69 1013.8
20260904041506 82 171 7.0 12.0 0.00 0.00 0.00 68 1013.9
20260904041007 82 167 9.0 15.0 0.00 0.00 0.00 67 1014.0
20260904040506 82 168 9.0 15.0 0.00 0.00 0.00 67 1013.9
20260904040006 82 163 10.0 16.0 0.00 0.00 0.00 67 1014.0
20260904035506 82 171 7.0 13.0 0.00 0.00 0.00 67 1013.9
20260904035006 82 175 6.0 13.0 0.00 0.00 0.00 66 1014.0
20260904034506 82 171 6.0 13.0 0.00 0.00 0.00 65 1014.0
20260904033506 82 164 9.0 17.0 0.00 0.00 0.00 64 1014.0
20260904033006 82 167 9.0 13.0 0.00 0.00 0.00 64 1014.0
20260904032506 82 174 9.0 13.0 0.00 0.00 0.00 64 1014.1
20260904032006 83 178 5.0 9.0 0.00 0.00 0.00 64 1014.0
20260904031506 83 150 4.0 9.0 0.00 0.00 0.00 64 1013.9
20260904030506 83 172 3.0 12.0 0.00 0.00 0.00 65 1013.8
20260904030006 83 176 6.0 13.0 0.00 0.00 0.00 65 1013.7
20260904025506 83 160 6.0 15.0 0.00 0.00 0.00 65 1013.5
20260904024506 83 181 9.0 15.0 0.00 0.00 0.00 67 1013.4
20260904024006 83 175 8.0 13.0 0.00 0.00 0.00 67 1013.5
20260904023506 83 163 12.0 21.0 0.00 0.00 0.00 67 1013.3
20260904023006 83 178 6.0 12.0 0.00 0.00 0.00 69 1013.2
20260904022506 84 169 5.0 13.0 0.00 0.00 0.00 69 1013.2
20260904021006 84 162 8.0 13.0 0.00 0.00 0.00 68 1012.9
20260904020506 84 132 6.0 13.0 0.00 0.00 0.00 67 1012.8
20260904020006 84 150 7.0 13.0 0.00 0.00 0.00 66 1012.8
20260904015505 84 168 9.0 15.0 0.00 0.00 0.00 66 1012.7
20260904015006 84 150 6.0 13.0 0.00 0.00 0.00 66 1012.6
20260904014506 85 160 5.0 9.0 0.00 0.00 0.00 66 1012.6
20260904014005 85 166 5.0 13.0 0.00 0.00 0.00 66 1012.4
20260904013505 85 160 7.0 12.0 0.00 0.00 0.00 65 1012.4
20260904013006 85 146 6.0 10.0 0.00 0.00 0.00 65 1012.4
20260904012506 85 155 4.0 13.0 0.00 0.00 0.00 65 1012.4
20260904012006 85 165 6.0 18.0 0.00 0.00 0.00 64 1012.2
20260904011506 85 138 9.0 16.0 0.00 0.00 0.00 64 1012.2
20260904011006 85 158 7.0 14.0 0.00 0.00 0.00 64 1012.1
20260904010506 85 140 9.0 14.0 0.00 0.00 0.00 63 1012.1
20260904010005 86 166 10.0 16.0 0.00 0.00 0.00 63 1012.1
20260904005506 86 134 7.0 14.0 0.00 0.00 0.00 63 1012.2
20260904004505 86 160 7.0 15.0 0.00 0.00 0.00 63 1012.3
20260904004006 86 153 8.0 17.0 0.00 0.00 0.00 63 1012.2
20260904003505 86 165 10.0 15.0 0.00 0.00 0.00 63 1012.1
20260904003006 87 155 7.0 14.0 0.00 0.00 0.00 63 1012.2
20260904002506 87 173 6.0 13.0 0.00 0.00 0.00 63 1012.1